When you browse on this site, cookies collect data to enhance your experience and personalize the content and advertising you see.
Visit our Privacy Policy to learn more. By continuing to use the site, you agree to this use of cookies and data.
  • In Sweden
  • List of Countries
  • For 7 days
  • Water Temperature
  • Satellite Maps
  • Weather Map
  • Weather Widgets
  • user-avatar
    Login

    Hourly Weather Sharbakty

    Today, 20 June, Thursday

    Time Temperature Precipitation Wind Pressure Humidity
    00:00 +15°C° 0 mm 2 mps 746 mmHg 65%
    01:00 +15°C° 0 mm 2 mps 746 mmHg 67%
    02:00 +14°C° 0 mm 2 mps 746 mmHg 68%
    03:00 +14°C° 0 mm 2 mps 747 mmHg 69%
    04:00 +14°C° 0 mm 2 mps 747 mmHg 70%
    05:00 +15°C° 0 mm 2 mps 747 mmHg 73%
    06:00 +16°C° 0 mm 2 mps 748 mmHg 67%
    07:00 +18°C° 0 mm 2 mps 748 mmHg 61%
    08:00 +19°C° 0 mm 2 mps 748 mmHg 55%
    09:00 +20°C° 0 mm 2 mps 748 mmHg 50%
    10:00 +21°C° 0 mm 2 mps 748 mmHg 46%
    11:00 +23°C° 0 mm 2 mps 748 mmHg 41%
    12:00 +24°C° 0 mm 2 mps 748 mmHg 39%
    13:00 +24°C° 0 mm 2 mps 748 mmHg 37%
    14:00 +25°C° 0 mm 2 mps 748 mmHg 35%
    15:00 +25°C° 0 mm 2 mps 748 mmHg 34%
    16:00 +25°C° 0 mm 2 mps 748 mmHg 34%
    17:00 +25°C° 0 mm 2 mps 748 mmHg 33%
    18:00 +23°C° 0 mm 1 mps 748 mmHg 39%
    19:00 +22°C° 0 mm 1 mps 748 mmHg 44%
    20:00 +21°C° 0 mm 1 mps 748 mmHg 49%
    21:00 +19°C° 0 mm 2 mps 748 mmHg 51%
    22:00 +18°C° 0 mm 2 mps 749 mmHg 53%
    23:00 +17°C° 0 mm 2 mps 749 mmHg 55%

    Tomorrow, 21 June, Friday

    Time Temperature Precipitation Wind Pressure Humidity
    00:00 +17°C° 0 mm 2 mps 748 mmHg 57%
    01:00 +16°C° 0 mm 2 mps 748 mmHg 59%
    02:00 +16°C° 0 mm 2 mps 748 mmHg 61%
    03:00 +16°C° 0 mm 2 mps 748 mmHg 62%
    04:00 +16°C° 0 mm 2 mps 748 mmHg 63%
    05:00 +16°C° 0 mm 2 mps 748 mmHg 63%
    06:00 +18°C° 0 mm 2 mps 748 mmHg 58%
    07:00 +20°C° 0 mm 2 mps 748 mmHg 53%
    08:00 +21°C° 0 mm 2 mps 748 mmHg 48%
    09:00 +23°C° 0 mm 2 mps 748 mmHg 44%
    10:00 +25°C° 0 mm 2 mps 748 mmHg 40%
    11:00 +26°C° 0 mm 2 mps 747 mmHg 36%
    12:00 +26°C° 0 mm 2 mps 747 mmHg 34%
    13:00 +27°C° 0 mm 2 mps 746 mmHg 32%
    14:00 +28°C° 0 mm 2 mps 746 mmHg 30%
    15:00 +28°C° 0 mm 2 mps 745 mmHg 29%
    16:00 +28°C° 0 mm 1 mps 745 mmHg 29%
    17:00 +28°C° 0 mm 1 mps 745 mmHg 29%
    18:00 +26°C° 0 mm 2 mps 744 mmHg 34%
    19:00 +25°C° 0 mm 2 mps 744 mmHg 40%
    20:00 +22°C° 0 mm 3 mps 744 mmHg 45%
    21:00 +22°C° 0 mm 3 mps 744 mmHg 46%
    22:00 +21°C° 0 mm 3 mps 743 mmHg 48%
    23:00 +20°C° 0 mm 4 mps 743 mmHg 49%

    Day after tomorrow, 22 June, Saturday

    Time Temperature Precipitation Wind Pressure Humidity
    00:00 +20°C° 0 mm 3 mps 743 mmHg 52%
    01:00 +19°C° 0 mm 2 mps 743 mmHg 55%
    02:00 +19°C° 0 mm 2 mps 742 mmHg 57%
    03:00 +19°C° 0 mm 2 mps 742 mmHg 59%
    04:00 +19°C° 0 mm 2 mps 742 mmHg 61%
    05:00 +20°C° 0 mm 1 mps 742 mmHg 62%
    06:00 +20°C° 0 mm 2 mps 742 mmHg 60%
    07:00 +21°C° 0 mm 2 mps 742 mmHg 57%
    08:00 +24°C° 0 mm 3 mps 742 mmHg 54%
    09:00 +24°C° 0 mm 3 mps 742 mmHg 52%
    10:00 +25°C° 0 mm 4 mps 742 mmHg 49%
    11:00 +26°C° 0 mm 4 mps 742 mmHg 47%
    12:00 +26°C° 0.4 mm 5 mps 742 mmHg 50%
    13:00 +24°C° 0.4 mm 6 mps 743 mmHg 53%
    14:00 +24°C° 0.4 mm 7 mps 743 mmHg 57%
    15:00 +23°C° 0.3 mm 7 mps 743 mmHg 55%
    16:00 +22°C° 0.3 mm 8 mps 744 mmHg 53%
    17:00 +22°C° 0.3 mm 8 mps 744 mmHg 52%
    18:00 +20°C° 0 mm 7 mps 745 mmHg 54%
    19:00 +19°C° 0 mm 6 mps 745 mmHg 56%
    20:00 +16°C° 0 mm 5 mps 746 mmHg 59%
    21:00 +15°C° 0 mm 5 mps 746 mmHg 61%
    22:00 +14°C° 0 mm 4 mps 747 mmHg 64%
    23:00 +13°C° 0 mm 4 mps 747 mmHg 67%

    23 June, Sunday

    Time Temperature Precipitation Wind Pressure Humidity
    00:00 +12°C° 0 mm 4 mps 747 mmHg 69%
    01:00 +12°C° 0 mm 3 mps 747 mmHg 72%
    02:00 +11°C° 0 mm 3 mps 747 mmHg 74%
    03:00 +11°C° 0 mm 4 mps 747 mmHg 74%
    04:00 +11°C° 0 mm 4 mps 747 mmHg 74%
    05:00 +10°C° 0 mm 4 mps 748 mmHg 74%
    06:00 +10°C° 0 mm 5 mps 748 mmHg 68%
    07:00 +13°C° 0 mm 5 mps 748 mmHg 61%
    08:00 +14°C° 0 mm 6 mps 748 mmHg 55%
    09:00 +14°C° 0.1 mm 6 mps 748 mmHg 53%
    10:00 +14°C° 0.1 mm 7 mps 748 mmHg 51%
    11:00 +15°C° 0.1 mm 8 mps 748 mmHg 49%
    12:00 +15°C° 0 mm 7 mps 748 mmHg 47%
    13:00 +15°C° 0 mm 7 mps 748 mmHg 46%
    14:00 +16°C° 0 mm 7 mps 748 mmHg 44%
    15:00 +16°C° 0 mm 6 mps 748 mmHg 45%
    16:00 +16°C° 0 mm 6 mps 748 mmHg 45%
    17:00 +16°C° 0 mm 6 mps 748 mmHg 45%
    18:00 +15°C° 0 mm 4 mps 748 mmHg 50%
    19:00 +14°C° 0 mm 3 mps 748 mmHg 55%
    20:00 +14°C° 0 mm 2 mps 748 mmHg 60%
    21:00 +14°C° 0 mm 2 mps 748 mmHg 62%
    22:00 +13°C° 0 mm 2 mps 748 mmHg 64%
    23:00 +12°C° 0 mm 2 mps 747 mmHg 66%

    24 June, Monday

    Time Temperature Precipitation Wind Pressure Humidity
    00:00 +12°C° 0 mm 2 mps 747 mmHg 66%
    01:00 +11°C° 0 mm 3 mps 747 mmHg 65%
    02:00 +11°C° 0 mm 3 mps 747 mmHg 65%
    03:00 +11°C° 0.2 mm 3 mps 746 mmHg 71%
    04:00 +11°C° 0.2 mm 3 mps 746 mmHg 77%
    05:00 +12°C° 0.2 mm 3 mps 746 mmHg 84%
    06:00 +12°C° 0.3 mm 4 mps 745 mmHg 84%
    07:00 +12°C° 0.3 mm 4 mps 745 mmHg 85%
    08:00 +12°C° 0.3 mm 4 mps 745 mmHg 86%
    09:00 +12°C° 0.3 mm 4 mps 745 mmHg 86%
    10:00 +13°C° 0.3 mm 4 mps 744 mmHg 86%
    11:00 +13°C° 0.3 mm 4 mps 744 mmHg 86%
    12:00 +13°C° 0.1 mm 4 mps 744 mmHg 87%
    13:00 +13°C° 0.1 mm 3 mps 744 mmHg 87%
    14:00 +13°C° 0.1 mm 3 mps 744 mmHg 88%
    15:00 +16°C° 0 mm 3 mps 744 mmHg 83%
    16:00 +17°C° 0 mm 3 mps 744 mmHg 78%
    17:00 +18°C° 0 mm 3 mps 744 mmHg 73%
    18:00 +17°C° 0 mm 2 mps 744 mmHg 77%
    19:00 +16°C° 0 mm 2 mps 745 mmHg 81%
    20:00 +15°C° 0 mm 2 mps 745 mmHg 85%
    21:00 +15°C° 0 mm 2 mps 745 mmHg 88%
    22:00 +13°C° 0 mm 3 mps 745 mmHg 90%
    23:00 +13°C° 0 mm 4 mps 745 mmHg 92%

    25 June, Tuesday

    Time Temperature Precipitation Wind Pressure Humidity
    00:00 +12°C° 0 mm 3 mps 745 mmHg 92%
    01:00 +12°C° 0 mm 3 mps 745 mmHg 93%
    02:00 +11°C° 0 mm 3 mps 745 mmHg 94%
    03:00 +12°C° 0 mm 3 mps 745 mmHg 92%
    04:00 +12°C° 0 mm 4 mps 745 mmHg 90%
    05:00 +13°C° 0 mm 4 mps 745 mmHg 88%
    06:00 +14°C° 0 mm 4 mps 745 mmHg 82%
    07:00 +17°C° 0 mm 4 mps 745 mmHg 76%
    08:00 +19°C° 0 mm 4 mps 745 mmHg 70%
    09:00 +21°C° 0 mm 4 mps 744 mmHg 65%
    10:00 +23°C° 0 mm 4 mps 744 mmHg 61%
    11:00 +26°C° 0 mm 4 mps 744 mmHg 56%
    12:00 +26°C° 0.3 mm 4 mps 744 mmHg 54%
    13:00 +27°C° 0.3 mm 3 mps 743 mmHg 53%
    14:00 +28°C° 0.3 mm 3 mps 743 mmHg 52%
    15:00 +28°C° 0.6 mm 4 mps 743 mmHg 53%
    16:00 +28°C° 0.6 mm 4 mps 743 mmHg 53%
    17:00 +27°C° 0.6 mm 4 mps 743 mmHg 54%
    18:00 +26°C° 0.2 mm 4 mps 743 mmHg 59%
    19:00 +23°C° 0.2 mm 5 mps 744 mmHg 64%
    20:00 +22°C° 0.2 mm 5 mps 744 mmHg 69%
    21:00 +20°C° 0 mm 4 mps 744 mmHg 73%
    22:00 +19°C° 0 mm 4 mps 744 mmHg 78%
    23:00 +18°C° 0 mm 4 mps 745 mmHg 82%
    Show more